sat.trackr.live / text

‹ back to catalog

FLOCK 4H-16

NORAD 66719 · 2025-276BF

PAYLOAD ACTIVE UNKNOWN

§ Identity

Operator
Country
US
Launch date
2025-11-28
Launch site
AFWTR
Launch vehicle
Mass (kg)
RCS (m²)

Purposes: earth_obs

External: N2YO · Heavens-Above · Gunter

§ Orbital elements

Epoch: 2026-09-19T23:58:06.968928Z

Period
94.68 min
Inclination
97.4156°
Eccentricity
0.0005191
Mean motion
15.20873959 rev/d
Perigee alt
499.6 km
Apogee alt
506.8 km
Semi-major
6,881.3 km
B*
2.0156e-4
RAAN
335.0817°
Arg perigee
50.0318°
Mean anomaly
310.1373°
Rev number
4,482

§ Raw data

FLOCK 4H-161 66719U 25276BF  26262.99869177  .00004385  00000+0  20156-3 0  99912 66719  97.4156 335.0817 0005191  50.0318 310.1373 15.20873959 44828

JSON: /api/v1/satellites/66719 · /tle

For live sub-satellite position, see the globe view (requires WebGL).

§ Visibility from observer

Set your observer location to see the next 7 days of passes ≥ 10°. The values pass through the URL so the page stays shareable.

No JS? Fill the form by hand. The geolocation button needs JavaScript.